FENGYUN 1C DEB

Satellite information

Favourite Embed

Satellite Type and Status

DEBRISIN ORBIT

Key statistics

Satellite FENGYUN 1C DEB at a glance.

Uptime

9557

Days in orbit

Revolutions

≈ 14.2

Per day

Orbit

SSO

Sun Synchronous Orbit

Inclination

98.8

Latest

Satellite identification and parameters

Extended collection of information and parameters for FENGYUN 1C DEB.

Object identification

Identified? True

Debris? True

Object name: FENGYUN 1C DEB

International designator: 1999-025BDY

Object number (NORAD): 31030

Object ID (CCSDS): 31030

Country: PEOPLES REPUBLIC OF CHINA (PRC)

Current information (Y/N): Y

RCS size: SMALL

Orbital parameters

Period: 101.202 minutes

Inclination: 98.781 deg

SMA: 7193.729 km

Apoapsis: 836.112 km

Periapsis: 795.077 km

RAAN: 251.1167 deg

Eccentricy: 0.0028521

Argument of periapsis: 175.647 deg

Mean anomaly: 316.0701 deg

Mean motion: 14.22890925 rev/day

Mean motion (dot): 0.00001423 rev/day2

B* drag term: 0.00065029 1/REarth

Two-line elements (TLE)

Creation date: July 8, 2025, 2:27 a.m.

Reference frame: TEME

Reference center: EARTH

Epoch: July 7, 2025, 4:26 p.m. UTC

TLE line 0: 0 FENGYUN 1C DEB

TLE line 1: 1 31030U 99025BDY 25188.68495624 .00001423 00000-0 65029-3 0 9995

TLE line 2: 2 31030 98.7810 251.1167 0028521 175.6470 316.0701 14.22890925944561

Live tracking on map

Real-time ground track for satellite FENGYUN 1C DEB.

In-orbit conjunctions

A list of the most updated potential collisions computed for object FENGYUN 1C DEB.

Target Orbit TCA Probability of collision Miss distance Type
FENGYUN 1C DEB SSO 2025-04-12 14:19:32 0.0001147901 76.0 (m) DEBRIS
DELTA 1 DEB SSO 2024-11-12 09:48:15 0.0001504005 391.0 (m) DEBRIS

Associated space launch

Chinese polar orbiting meteorological satellite

FENGYUN 1C DEB was lifted into orbit during the mission ‘Long March 4B | Feng Yun 1C’, on board a Long March 4B space rocket.

The launch took place on May 10, 1999, 1:33 a.m. from Launch Complex 7.

For more information about the launch, click the button.

Launch to space Long March 4B | Feng Yun 1C
Long March 4B | Feng Yun 1C

Agency: N/A

Status: Launch Successful

Launch date: May 10, 1999, 1:33 a.m. UTC

Rocket: Long March 4B

Launch pad: Launch Complex 7

Location: Taiyuan Satellite Launch Center, People's Republic of China

...

Latest news about this satellite

There are no fresh news available about this satellite. Check back as we update our databases every day.


Newsletter sign-up

Weekly statistics, charts and insights to help you stay on top of the space industry.